QPF
0.00 0.00 0.00 0.00 0.00 0.00 0.00 0.00 0.00 0.00 0.00 0.00 0.00 0.00 0.00 0.00 0.00 0.00 0.00 0.00 0.00 0.00 0.00 0.00 0.00 0.00 0.00 0.00 0.01 0.01 0.01 0.01 0.01 0.01 0.02 0.03 0.03 0.03
0.00 0.00 0.00 0.00 0.00 0.00 0.00 0.00 0.00 0.00 0.00 0.00 0.00 0.00 0.00 0.00 0.00 0.00 0.00 0.00 0.00 0.00 0.00 0.00 0.00 0.00 0.01 0.01 0.01 0.01 0.02 0.02 0.02 0.02 0.03 0.03 0.04 0.04
0.00 0.00 0.00 0.00 0.00 0.00 0.00 0.00 0.00 0.00 0.00 0.00 0.00 0.00 0.00 0.00 0.00 0.00 0.00 0.00 0.00 0.00 0.00 0.00 0.00 0.00 0.00 0.01 0.01 0.01 0.01 0.01 0.01 0.01 0.02 0.02 0.03 0.04
0.00 0.00 0.00 0.00 0.00 0.00 0.00 0.00 0.00 0.00 0.00 0.00 0.00 0.00 0.00 0.00 0.00 0.00 0.00 0.00 0.00 0.00 0.00 0.00 0.00 0.00 0.00 0.01 0.01 0.00 0.00 0.00 0.00 0.01 0.01 0.01 0.02 0.03
0.00 0.00 0.00 0.00 0.00 0.00 0.00 0.00 0.00 0.00 0.00 0.00 0.00 0.00 0.00 0.00 0.00 0.00 0.00 0.00 0.00 0.00 0.00 0.00 0.00 0.00 0.00 0.00 0.00 0.00 0.00 0.00 0.00 0.00 0.01 0.01 0.01 0.02
0.00 0.00 0.00 0.00 0.00 0.00 0.00 0.00 0.00 0.00 0.00 0.00 0.00 0.00 0.00 0.00 0.00 0.00 0.00 0.00 0.00 0.00 0.00 0.00 0.00 0.00 0.00 0.00 0.00 0.00 0.00 0.00 0.00 0.00 0.00 0.00 0.00 0.01
0.00 0.00 0.00 0.00 0.00 0.00 0.00 0.00 0.00 0.00 0.00 0.00 0.00 0.00 0.00 0.00 0.00 0.00 0.00 0.00 0.00 0.00 0.00 0.00 0.00 0.00 0.00 0.00 0.00 0.00 0.00 0.00 0.00 0.00 0.00 0.00 0.00 0.00
0.00 0.00 0.00 0.00 0.00 0.00 0.00 0.00 0.00 0.00 0.00 0.00 0.00 0.00 0.00 0.00 0.00 0.01 0.01 0.01 0.01 0.00 0.00 0.00 0.00 0.00 0.00 0.00 0.00 0.00 0.00 0.00 0.00 0.00 0.00 0.00 0.00 0.00
0.00 0.00 0.00 0.00 0.00 0.00 0.00 0.00 0.00 0.00 0.00 0.00 0.00 0.00 0.00 0.01 0.01 0.01 0.01 0.01 0.01 0.01 0.00 0.00 0.00 0.00 0.00 0.00 0.00 0.00 0.00 0.00 0.00 0.00 0.00 0.00 0.00 0.00
0.00 0.00 0.00 0.00 0.00 0.00 0.00 0.00 0.00 0.00 0.00 0.00 0.00 0.00 0.01 0.01 0.01 0.01 0.01 0.01 0.01 0.00 0.00 0.01 0.00 0.00 0.00 0.00 0.00 0.00 0.00 0.00 0.00 0.00 0.00 0.00 0.00 0.00
0.00 0.00 0.00 0.00 0.00 0.00 0.00 0.00 0.00 0.00 0.00 0.00 0.00 0.00 0.00 0.00 0.01 0.01 0.01 0.02 0.01 0.00 0.00 0.01 0.01 0.00 0.00 0.00 0.00 0.00 0.00 0.00 0.01 0.01 0.01 0.01 0.01 0.01
0.00 0.00 0.00 0.00 0.00 0.01 0.01 0.00 0.01 0.00 0.00 0.00 0.00 0.00 0.00 0.00 0.01 0.01 0.01 0.01 0.02 0.02 0.02 0.02 0.02 0.01 0.01 0.00 0.00 0.00 0.01 0.01 0.01 0.01 0.02 0.02 0.02 0.02
0.00 0.00 0.01 0.01 0.01 0.01 0.01 0.01 0.01 0.01 0.00 0.00 0.00 0.00 0.01 0.00 0.00 0.00 0.00 0.00 0.01 0.02 0.02 0.03 0.03 0.03 0.03 0.01 0.00 0.00 0.01 0.02 0.02 0.02 0.02 0.02 0.02 0.02
0.01 0.01 0.01 0.01 0.01 0.01 0.01 0.01 0.01 0.01 0.01 0.01 0.01 0.01 0.01 0.01 0.01 0.00 0.00 0.00 0.00 0.01 0.01 0.02 0.03 0.03 0.03 0.02 0.01 0.01 0.01 0.02 0.03 0.03 0.02 0.02 0.02 0.03
0.01 0.01 0.01 0.01 0.01 0.01 0.01 0.01 0.01 0.01 0.01 0.01 0.01 0.01 0.00 0.00 0.00 0.00 0.00 0.00 0.00 0.00 0.00 0.01 0.01 0.01 0.02 0.02 0.02 0.02 0.02 0.02 0.03 0.03 0.03 0.03 0.03 0.03
0.01 0.01 0.01 0.01 0.01 0.01 0.01 0.01 0.01 0.01 0.01 0.01 0.01 0.00 0.00 0.00 0.00 0.00 0.00 0.00 0.00 0.00 0.00 0.00 0.00 0.01 0.01 0.01 0.02 0.03 0.03 0.04 0.03 0.03 0.03 0.03 0.03 0.03
0.01 0.01 0.01 0.01 0.01 0.01 0.01 0.00 0.00 0.00 0.01 0.00 0.00 0.00 0.00 0.00 0.00 0.00 0.00 0.00 0.00 0.00 0.00 0.00 0.00 0.00 0.01 0.01 0.02 0.03 0.03 0.03 0.03 0.03 0.02 0.02 0.03 0.03
0.02 0.02 0.02 0.01 0.01 0.01 0.00 0.00 0.00 0.00 0.00 0.00 0.00 0.00 0.00 0.00 0.00 0.00 0.00 0.00 0.00 0.00 0.00 0.00 0.00 0.00 0.00 0.01 0.02 0.02 0.02 0.02 0.02 0.02 0.01 0.02 0.03 0.04
0.02 0.02 0.02 0.01 0.00 0.00 0.00 0.00 0.00 0.00 0.00 0.00 0.00 0.00 0.00 0.00 0.00 0.00 0.00 0.00 0.00 0.00 0.00 0.00 0.01 0.01 0.01 0.02 0.02 0.02 0.02 0.02 0.02 0.02 0.02 0.03 0.04 0.04
0.01 0.02 0.02 0.01 0.00 0.00 0.00 0.00 0.00 0.00 0.00 0.00 0.00 0.00 0.00 0.00 0.00 0.00 0.00 0.00 0.00 0.00 0.00 0.00 0.01 0.01 0.02 0.03 0.03 0.03 0.03 0.02 0.02 0.02 0.02 0.03 0.03 0.04
0.01 0.01 0.00 0.00 0.00 0.00 0.00 0.00 0.00 0.00 0.00 0.00 0.00 0.00 0.00 0.00 0.00 0.00 0.00 0.00 0.00 0.00 0.00 0.01 0.00 0.01 0.01 0.01 0.03 0.03 0.03 0.03 0.03 0.02 0.02 0.02 0.02 0.02
0.01 0.00 0.00 0.00 0.00 0.00 0.00 0.00 0.00 0.00 0.00 0.00 0.00 0.00 0.00 0.00 0.00 0.00 0.00 0.00 0.00 0.00 0.00 0.00 0.00 0.00 0.00 0.01 0.03 0.03 0.02 0.02 0.02 0.02 0.02 0.02 0.03 0.04
0.00 0.00 0.00 0.00 0.00 0.00 0.00 0.00 0.00 0.00 0.00 0.00 0.00 0.00 0.00 0.00 0.00 0.00 0.00 0.00 0.00 0.00 0.00 0.00 0.00 0.00 0.00 0.01 0.01 0.01 0.01 0.01 0.01 0.01 0.02 0.03 0.05 0.06
MSLP
1023.66 1023.84 1023.99 1024.11 1024.20 1024.24 1024.24 1024.21 1024.15 1024.05 1023.93 1023.77 1023.58 1023.35 1023.09 1022.78 1022.45 1022.10 1021.75 1021.40 1021.06 1020.74 1020.43 1020.13 1019.84 1019.54 1019.24 1018.92 1018.59 1018.27 1017.94 1017.63 1017.33 1017.05 1016.78 1016.53 1016.29 1016.07
1024.18 1024.27 1024.33 1024.37 1024.38 1024.36 1024.31 1024.24 1024.14 1024.01 1023.86 1023.67 1023.45 1023.18 1022.87 1022.53 1022.16 1021.77 1021.38 1021.00 1020.63 1020.29 1019.96 1019.65 1019.35 1019.04 1018.73 1018.41 1018.08 1017.74 1017.41 1017.09 1016.77 1016.48 1016.20 1015.93 1015.67 1015.42
1024.57 1024.57 1024.54 1024.49 1024.42 1024.34 1024.24 1024.13 1024.00 1023.85 1023.67 1023.46 1023.21 1022.91 1022.57 1022.19 1021.78 1021.36 1020.94 1020.53 1020.14 1019.77 1019.43 1019.11 1018.79 1018.48 1018.16 1017.84 1017.51 1017.17 1016.84 1016.52 1016.21 1015.91 1015.62 1015.34 1015.07 1014.82
1024.84 1024.74 1024.63 1024.50 1024.36 1024.22 1024.08 1023.94 1023.78 1023.61 1023.42 1023.19 1022.91 1022.59 1022.22 1021.81 1021.38 1020.92 1020.48 1020.04 1019.63 1019.24 1018.88 1018.54 1018.21 1017.89 1017.56 1017.23 1016.90 1016.56 1016.23 1015.91 1015.60 1015.30 1015.01 1014.73 1014.47 1014.21
1025.00 1024.82 1024.63 1024.43 1024.24 1024.05 1023.87 1023.70 1023.52 1023.33 1023.12 1022.88 1022.58 1022.24 1021.86 1021.43 1020.97 1020.50 1020.03 1019.57 1019.14 1018.73 1018.35 1017.98 1017.63 1017.29 1016.94 1016.60 1016.25 1015.90 1015.56 1015.23 1014.92 1014.63 1014.34 1014.08 1013.82 1013.58
1025.07 1024.83 1024.58 1024.33 1024.09 1023.86 1023.65 1023.45 1023.25 1023.04 1022.81 1022.55 1022.24 1021.89 1021.49 1021.05 1020.58 1020.10 1019.62 1019.14 1018.69 1018.26 1017.86 1017.47 1017.09 1016.71 1016.34 1015.96 1015.58 1015.21 1014.85 1014.51 1014.19 1013.88 1013.61 1013.35 1013.11 1012.88
1025.09 1024.81 1024.51 1024.22 1023.94 1023.67 1023.43 1023.19 1022.96 1022.73 1022.48 1022.20 1021.88 1021.52 1021.11 1020.67 1020.21 1019.73 1019.24 1018.77 1018.30 1017.86 1017.43 1017.01 1016.60 1016.18 1015.77 1015.35 1014.93 1014.52 1014.12 1013.75 1013.41 1013.10 1012.82 1012.56 1012.34 1012.13
1025.06 1024.75 1024.43 1024.10 1023.79 1023.49 1023.20 1022.93 1022.66 1022.39 1022.12 1021.81 1021.48 1021.12 1020.72 1020.29 1019.84 1019.37 1018.90 1018.44 1017.97 1017.52 1017.08 1016.63 1016.18 1015.73 1015.26 1014.79 1014.33 1013.87 1013.43 1013.02 1012.65 1012.31 1012.02 1011.76 1011.54 1011.35
1024.99 1024.66 1024.32 1023.97 1023.62 1023.28 1022.95 1022.64 1022.33 1022.02 1021.71 1021.39 1021.05 1020.69 1020.30 1019.90 1019.48 1019.04 1018.60 1018.15 1017.70 1017.25 1016.80 1016.33 1015.85 1015.36 1014.85 1014.33 1013.82 1013.31 1012.82 1012.37 1011.96 1011.59 1011.27 1011.00 1010.78 1010.60
1024.89 1024.54 1024.18 1023.80 1023.42 1023.04 1022.67 1022.30 1021.95 1021.61 1021.27 1020.93 1020.59 1020.24 1019.88 1019.51 1019.13 1018.73 1018.33 1017.91 1017.49 1017.05 1016.59 1016.11 1015.61 1015.09 1014.55 1013.99 1013.43 1012.88 1012.35 1011.86 1011.40 1011.00 1010.65 1010.36 1010.12 1009.93
1024.76 1024.39 1024.00 1023.59 1023.17 1022.76 1022.34 1021.94 1021.54 1021.17 1020.81 1020.46 1020.13 1019.80 1019.48 1019.15 1018.81 1018.46 1018.10 1017.73 1017.33 1016.91 1016.45 1015.97 1015.46 1014.92 1014.36 1013.77 1013.18 1012.60 1012.04 1011.51 1011.02 1010.59 1010.21 1009.88 1009.62 1009.41
1024.59 1024.20 1023.78 1023.35 1022.90 1022.44 1021.99 1021.55 1021.13 1020.73 1020.36 1020.02 1019.70 1019.40 1019.11 1018.83 1018.54 1018.24 1017.92 1017.58 1017.21 1016.80 1016.36 1015.89 1015.37 1014.83 1014.25 1013.66 1013.06 1012.47 1011.89 1011.34 1010.83 1010.36 1009.95 1009.60 1009.30 1009.06
1024.42 1023.99 1023.55 1023.08 1022.61 1022.12 1021.65 1021.18 1020.75 1020.34 1019.97 1019.64 1019.34 1019.07 1018.82 1018.58 1018.33 1018.07 1017.78 1017.47 1017.12 1016.73 1016.30 1015.83 1015.32 1014.78 1014.21 1013.63 1013.04 1012.45 1011.87 1011.32 1010.80 1010.31 1009.88 1009.49 1009.16 1008.88
1024.25 1023.80 1023.33 1022.84 1022.34 1021.84 1021.35 1020.88 1020.44 1020.03 1019.67 1019.36 1019.08 1018.83 1018.61 1018.39 1018.17 1017.93 1017.66 1017.36 1017.02 1016.64 1016.22 1015.76 1015.27 1014.74 1014.20 1013.64 1013.07 1012.50 1011.94 1011.40 1010.88 1010.40 1009.94 1009.53 1009.17 1008.85
1024.11 1023.63 1023.14 1022.64 1022.13 1021.63 1021.13 1020.66 1020.23 1019.83 1019.49 1019.18 1018.92 1018.68 1018.47 1018.26 1018.04 1017.81 1017.54 1017.24 1016.90 1016.52 1016.11 1015.66 1015.18 1014.68 1014.17 1013.64 1013.11 1012.58 1012.05 1011.54 1011.03 1010.55 1010.09 1009.66 1009.27 1008.91
1024.01 1023.52 1023.02 1022.52 1022.01 1021.51 1021.03 1020.57 1020.14 1019.76 1019.41 1019.11 1018.84 1018.61 1018.38 1018.16 1017.93 1017.67 1017.39 1017.08 1016.73 1016.35 1015.94 1015.51 1015.06 1014.59 1014.11 1013.63 1013.14 1012.66 1012.17 1011.68 1011.20 1010.73 1010.26 1009.82 1009.40 1009.01
1023.97 1023.48 1022.99 1022.50 1022.01 1021.52 1021.05 1020.60 1020.18 1019.80 1019.45 1019.13 1018.84 1018.57 1018.32 1018.06 1017.79 1017.51 1017.20 1016.87 1016.51 1016.12 1015.72 1015.31 1014.89 1014.46 1014.03 1013.59 1013.15 1012.70 1012.25 1011.80 1011.34 1010.88 1010.42 1009.97 1009.53 1009.11
1024.00 1023.54 1023.06 1022.59 1022.12 1021.65 1021.20 1020.76 1020.33 1019.94 1019.56 1019.22 1018.89 1018.57 1018.27 1017.96 1017.64 1017.31 1016.97 1016.61 1016.24 1015.86 1015.48 1015.09 1014.70 1014.31 1013.92 1013.53 1013.13 1012.73 1012.31 1011.88 1011.43 1010.98 1010.52 1010.07 1009.61 1009.18
1024.12 1023.68 1023.24 1022.79 1022.35 1021.90 1021.45 1021.01 1020.58 1020.15 1019.74 1019.35 1018.96 1018.59 1018.22 1017.85 1017.48 1017.11 1016.74 1016.36 1015.99 1015.62 1015.25 1014.89 1014.54 1014.19 1013.84 1013.49 1013.12 1012.74 1012.34 1011.93 1011.50 1011.05 1010.59 1010.13 1009.67 1009.22
1024.31 1023.91 1023.51 1023.09 1022.67 1022.23 1021.79 1021.34 1020.88 1020.42 1019.96 1019.51 1019.06 1018.62 1018.18 1017.75 1017.34 1016.93 1016.53 1016.15 1015.78 1015.43 1015.09 1014.76 1014.44 1014.13 1013.81 1013.48 1013.14 1012.77 1012.38 1011.97 1011.54 1011.09 1010.63 1010.17 1009.71 1009.27
1024.58 1024.23 1023.85 1023.46 1023.06 1022.63 1022.18 1021.70 1021.22 1020.72 1020.21 1019.69 1019.18 1018.67 1018.18 1017.70 1017.24 1016.80 1016.39 1016.01 1015.66 1015.33 1015.02 1014.73 1014.44 1014.16 1013.86 1013.54 1013.21 1012.84 1012.45 1012.04 1011.60 1011.15 1010.69 1010.24 1009.78 1009.35
1024.92 1024.59 1024.25 1023.87 1023.47 1023.04 1022.58 1022.08 1021.56 1021.02 1020.45 1019.89 1019.32 1018.76 1018.22 1017.70 1017.22 1016.77 1016.36 1015.99 1015.66 1015.36 1015.08 1014.82 1014.56 1014.29 1014.00 1013.69 1013.35 1012.98 1012.58 1012.15 1011.71 1011.26 1010.80 1010.36 1009.93 1009.53
1025.29 1024.98 1024.65 1024.29 1023.88 1023.44 1022.96 1022.43 1021.88 1021.29 1020.69 1020.08 1019.47 1018.88 1018.31 1017.77 1017.28 1016.84 1016.44 1016.10 1015.79 1015.52 1015.27 1015.03 1014.78 1014.52 1014.24 1013.92 1013.57 1013.19 1012.77 1012.34 1011.89 1011.45 1011.01 1010.59 1010.19 1009.83
Thickness
5571 5567 5563 5559 5555 5551 5548 5544 5541 5539 5536 5530 5526 5524 5520 5518 5516 5513 5511 5508 5506 5503 5501 5498 5496 5494 5492 5490 5489 5487 5486 5485 5484 5483 5484 5484 5486 5488
5554 5550 5546 5541 5537 5533 5529 5525 5521 5519 5517 5513 5510 5507 5504 5502 5500 5497 5495 5493 5491 5488 5485 5483 5481 5479 5477 5476 5474 5473 5472 5470 5469 5469 5469 5470 5472 5474
5536 5532 5528 5524 5519 5516 5512 5507 5503 5499 5498 5496 5492 5491 5488 5487 5485 5483 5480 5479 5477 5474 5472 5470 5468 5466 5465 5463 5462 5460 5459 5458 5457 5456 5457 5458 5459 5461
5517 5514 5509 5506 5502 5498 5495 5491 5487 5483 5481 5480 5478 5476 5474 5472 5471 5469 5467 5465 5463 5462 5460 5458 5456 5455 5453 5452 5450 5449 5447 5446 5445 5445 5446 5447 5448 5449
5499 5495 5491 5488 5485 5482 5479 5476 5472 5469 5465 5463 5463 5461 5460 5459 5458 5457 5455 5453 5452 5451 5450 5448 5446 5444 5443 5441 5441 5440 5439 5439 5438 5437 5437 5437 5438 5439
5481 5478 5475 5472 5469 5466 5464 5461 5458 5455 5453 5450 5449 5449 5448 5447 5446 5446 5447 5445 5443 5443 5441 5439 5438 5436 5435 5435 5434 5433 5433 5432 5431 5430 5430 5429 5430 5431
5464 5461 5458 5458 5455 5452 5450 5448 5446 5443 5442 5440 5439 5439 5440 5439 5437 5436 5436 5437 5436 5436 5434 5432 5432 5431 5430 5430 5429 5428 5427 5426 5425 5424 5424 5423 5424 5424
5448 5445 5443 5441 5440 5438 5437 5436 5435 5434 5433 5431 5432 5432 5433 5432 5430 5429 5429 5429 5431 5431 5427 5428 5427 5427 5426 5426 5425 5424 5423 5421 5420 5420 5419 5419 5419 5419
5433 5430 5429 5428 5427 5426 5426 5427 5427 5426 5426 5425 5426 5427 5427 5426 5425 5425 5424 5423 5424 5425 5423 5424 5425 5423 5423 5423 5422 5420 5419 5417 5416 5416 5415 5415 5415 5415
5422 5419 5418 5418 5418 5417 5418 5420 5421 5423 5423 5423 5423 5423 5423 5423 5421 5420 5420 5420 5420 5421 5419 5419 5421 5420 5421 5420 5419 5417 5415 5414 5413 5412 5412 5411 5411 5412
5414 5412 5411 5411 5412 5412 5413 5415 5418 5421 5423 5422 5422 5422 5422 5421 5420 5419 5419 5418 5419 5420 5418 5415 5417 5417 5417 5417 5416 5414 5412 5410 5409 5409 5408 5408 5408 5408
5408 5408 5408 5408 5409 5410 5411 5413 5416 5419 5420 5421 5422 5422 5422 5422 5420 5418 5416 5415 5415 5416 5416 5413 5413 5411 5413 5413 5412 5410 5409 5407 5407 5406 5405 5405 5405 5405
5403 5405 5406 5407 5408 5411 5412 5414 5415 5417 5418 5419 5420 5421 5421 5421 5420 5418 5415 5413 5412 5412 5412 5409 5408 5407 5405 5406 5408 5407 5405 5404 5403 5403 5402 5402 5402 5402
5401 5403 5405 5408 5410 5412 5414 5416 5417 5418 5418 5419 5420 5420 5420 5419 5418 5417 5416 5414 5412 5410 5409 5406 5405 5403 5402 5402 5402 5403 5403 5402 5400 5399 5399 5399 5399 5399
5402 5404 5407 5409 5412 5414 5415 5416 5417 5418 5418 5419 5419 5418 5418 5417 5417 5417 5416 5415 5414 5413 5410 5407 5404 5402 5399 5398 5398 5398 5398 5399 5397 5396 5396 5396 5396 5396
5405 5407 5409 5411 5413 5414 5416 5418 5418 5418 5417 5417 5417 5417 5417 5417 5417 5415 5414 5413 5412 5413 5412 5409 5406 5403 5400 5399 5397 5397 5396 5395 5395 5395 5394 5394 5393 5393
5405 5408 5410 5412 5414 5415 5417 5418 5419 5419 5419 5418 5417 5417 5417 5417 5416 5414 5412 5412 5410 5410 5411 5410 5408 5406 5403 5399 5398 5397 5396 5396 5395 5394 5394 5394 5393 5393
5408 5408 5410 5411 5412 5413 5415 5417 5419 5419 5418 5418 5417 5417 5416 5415 5415 5414 5413 5412 5411 5411 5410 5409 5408 5408 5407 5405 5400 5398 5398 5397 5396 5396 5395 5395 5395 5394
5409 5409 5410 5411 5412 5414 5415 5416 5417 5417 5417 5417 5417 5416 5415 5415 5415 5414 5413 5412 5412 5412 5410 5409 5407 5407 5407 5406 5404 5400 5399 5399 5399 5399 5397 5396 5395 5395
5409 5409 5410 5412 5413 5414 5415 5415 5416 5417 5417 5417 5417 5416 5415 5415 5415 5415 5414 5413 5412 5412 5412 5411 5409 5407 5405 5404 5403 5403 5401 5401 5401 5401 5400 5399 5399 5398
5409 5410 5411 5412 5413 5414 5414 5415 5415 5416 5416 5416 5416 5416 5416 5415 5416 5415 5415 5413 5412 5412 5412 5411 5410 5408 5407 5408 5407 5406 5405 5404 5402 5401 5402 5403 5403 5404
5409 5410 5411 5412 5413 5413 5414 5415 5416 5416 5416 5416 5416 5416 5416 5416 5416 5416 5416 5415 5415 5414 5413 5412 5412 5412 5412 5410 5409 5409 5409 5408 5407 5405 5404 5403 5403 5404
5409 5410 5411 5412 5413 5413 5414 5414 5415 5415 5415 5415 5415 5416 5417 5418 5418 5418 5418 5417 5416 5416 5415 5415 5414 5414 5413 5412 5412 5411 5411 5411 5411 5411 5409 5407 5405 5404